Location: Asheville, NC
(35.6000°N, 82.5500°W)
Time: 01:29:42
(UTC-05:00)

Vanguard 2 Rocket - Pass Details

Date: 17 February 2018
Orbit: 555 x 3327 km, 32.9° (Epoch: 23 February)

Event Time Altitude Azimuth Distance (km) Brightness Sun altitude
Rises 21:23:16 0° 201° (SSW) 4,514 10.5 -38.9°
Reaches altitude 10° 21:26:24 10° 190° (S) 3,895 10.0 -39.5°
Enters shadow 21:26:55 12° 188° (S) 3,813 10.0 -39.6°
Maximum altitude 21:35:24 29° 135° (SE) 3,508 - -41.2°
Drops below altitude 10° 21:48:35 10° 84° (E) 5,830 - -43.8°
Sets 21:54:36 0° 75° (ENE) 7,129 - -44.9°
